Regional Weather Roundup
Issued by NWS Northern Indiana

Home | Current Version | Previous Version | Text Only | Print | Product List | Glossary On
Versions: 1 2 3 4 5 6 7 8 9 10 11 12 13 14 15 16 17 18 19 20 21 22 23 24 25 26 27 28 29 30 31 32 33 34 35 36 37 38 39 40 41 42 43 44 45 46 47 48 49 50
000
ASUS43 KIWX 250310
RWRIWX

KIWX WEATHER ROUNDUP
NATIONAL WEATHER SERVICE NORTHERN INDIANA
1100 PM EDT MON APR 24 2017

NOTE: "FAIR" INDICATES FEW OR NO CLOUDS BELOW 12,000 FEET WITH NO
SIGNIFICANT WEATHER AND/OR OBSTRUCTIONS TO VISIBILITY.

* THESE STATIONS ARE NOT UNDER NWS QUALITY CONTROL. THEY ALSO MAY NOT
  REPORT WEATHER SUCH AS PRECIPITATION OR FOG.

INZ001>027-250400-
NORTHERN INDIANA

CITY           SKY/WX    TMP DP  RH WIND       PRES   REMARKS
GARY*          PTCLDY    63  32  31 E9        29.78S
VALPARAISO     CLEAR     58  38  47 E8        29.79F
MICHIGAN CITY* CLEAR     61  34  36 SE7       29.80S
LAPORTE*       CLOUDY    59  37  43 E9        29.80F
KNOX*          CLOUDY    57  12  17 E8        29.79F
SOUTH BEND     CLOUDY    60  33  36 SE16      29.82F
GOSHEN         CLOUDY    55  36  48 E10       29.83F
MONTICELLO*    CLEAR     62  39  42 E5        29.77F
LOGANSPORT*    CLEAR     61  39  44 E10       29.81R
ROCHESTER*     CLEAR     59  37  44 E8        29.82S
WARSAW*        CLEAR     54  37  54 E7        29.83S
ANGOLA*        CLEAR     55  37  50 E10       29.85S
FORT WAYNE     PTCLDY    56  39  53 E13       29.83S
HUNTINGTON*    CLEAR     57  38  50 E6        29.83R
PERU/GRISSOM   CLEAR     61  40  44 E13       29.78S
MARION*        CLEAR     59  43  55 E5        29.82R

$$
INZ028>050-250400-
CENTRAL INDIANA

CITY           SKY/WX    TMP DP  RH WIND       PRES   REMARKS
LAFAYETTE      CLEAR     60  41  49 E10       29.76F
KOKOMO*        CLEAR     59  42  53 E12       29.80S
MUNCIE*        CLEAR     64  51  62 SE13      29.80S
INDIANAPOLIS   PTCLDY    65  51  60 SE14      29.77R

$$
MIZ043>046-050>051-056>058-064>065-071>073-077>080-250400-
SOUTHWEST LOWER MICHIGAN

CITY           SKY/WX    TMP DP  RH WIND       PRES   REMARKS
BATTLE CREEK   CLOUDY    61  34  36 SE12      29.87S
BENTON HARBOR  PTCLDY    59  31  34 E8        29.81S
COLDWATER*     CLEAR     55  32  42 E7        29.86S
HILLSDALE*     CLEAR     54  36  50 E12G20    29.86S
HOLLAND        CLOUDY    57  35  43 SE7       29.83S
GRAND RAPIDS   CLOUDY    58  37  45 E10       29.84F
KALAMAZOO      CLOUDY    60  31  33 SE6       29.85F
STURGIS*       CLEAR     56  34  43 E10G16    29.84F
THREE RIVERS*  FAIR      58  32  36 E9        29.85F

$$
OHZ001>008-015>018-024>025-250400-
NORTHWEST OHIO

CITY           SKY/WX    TMP DP  RH WIND       PRES   REMARKS
WAUSEON*       FAIR      52  45  76 E13       29.87S
DEFIANCE       PTCLDY    53  40  61 E10       29.86S
FINDLAY        MOCLDY    62  46  55 SE15G25   29.86S
TOLEDO EXPRESS CLOUDY    51  45  79 E7        29.88S
TOLEDO METCALF CLOUDY    51  47  86 E7        29.90S
LIMA           CLEAR     57  48  72 E7        29.86S

$$
AND FOR LAKE MICHIGAN COASTAL AND OPEN LAKE BUOY OBSERVATIONS

STATION/POSITION TEMP    WIND        PRES    VSBY  WAVE
                 AIR SEA DIR/SP/G                  HT/PER
                 (F)     (DEG/KT/KT) (MB)    (MI)  (FT/S)
CALUMET HARBOR    58     100/  7/  9 1007.9S
MICHIGAN CITY     64     100/ 11/ 14   N/A
BURNS HARBOR      65     110/ 13/ 17 1008.8F
SOUTH LAKE BUOY   49 42   90/ 10/ 10 1009.3F         1
4 MI NW BRIDGMAN  61 52  140/ 12/ 17 1009.2          1/ 2

$$
&&



USA.gov is the U.S. government's official web portal to all federal, state and local government web resources and services.